Location: Cerda�ola
(41.4919°N, 2.1403°E)
Time: 20:25:30
(UTC+00:00)

Lacrosse 4 Rocket - Pass Details

Date: 16 August 2020
Orbit: 544 x 615 km, 68.0° (Epoch: 01 October)

Event Time Altitude Azimuth Distance (km) Brightness Sun altitude
Exits shadow 21:40:54 38° 12° (NNE) 877 2.5 -27.0°
Drops below altitude 10° 21:43:36 10° 24° (NNE) 1,869 4.3 -27.3°
Sets 21:45:48 0° 26° (NNE) 2,758 5.2 -27.5°
